Location: Canazei
(46.4667°N, 11.7667°E)
Time: 18:28:53
(UTC+00:00)

Cosmos 1400 Rocket - Pass Details

Date: 21 April 2021
Orbit: 522 x 566 km, 81.2° (Epoch: 11 May)

Event Time Altitude Azimuth Distance (km) Brightness Sun altitude
Rises 02:56:54 0° 352° (N) 2,765 6.8 -13.0°
Reaches altitude 10° 02:59:07 10° 356° (N) 1,869 5.9 -12.6°
Maximum altitude 03:03:12 61° 77° (ENE) 649 3.5 -12.0°
Drops below altitude 10° 03:07:16 10° 158° (SSE) 1,860 5.4 -11.5°
Sets 03:09:28 0° 162° (SSE) 2,751 6.3 -11.1°
